STARLINK-11178, 62465

Orbit data source: Space-Track

STARLINK-11178, 62465 is a payload satellite owned by SpaceX/Seattle (US) in LEO that was launched on Tue, 31 Dec 2024 UTC via an FALCON 9 launch vehicle from the Air Force Eastern Test Range (AFETR). Payload-class satellites include a variety of spacecraft equipped with specific instruments for various scientific and technological missions. These include communications satellites like Starlink; space stations such as the ISS; scientific satellites like the Hubble; Earth observation satellites from companies like Planet Labs, Umbra, and HawkEye 360; GPS; miniature CubeSats for education and research; and military/defense satellites.

Loading next visibility...
Identifier
62465, 2024-254D
Orbit
LEO
Country
Flag of USUS
Related business
Manufacturer
SpaceX/Seattle
Mission
Operational Commercial Communications
Bus & Motor
STARLINK V2MD, Unknown motor
Mass
960 kg wet, ~910 kg dry
Launch date (UTC)
2024-12-31 (10 months ago)
Launch vehicle
FALCON 9
Launch site
Air Force Eastern Test Range (AFETR)
Object type
Payload
Rocket body
Debris
Shape & HBR
Box + 2 Pan, 18.1 m
Radar Cross Section
36.964 m², Large (>1 m²)

Expand to show TLE details & history
Last TLE update: 21 hours ago

TLE from 21 hours ago
0 STARLINK-11178
1 62465U 24254D   25290.21495117  .00301650  00000-0  22497-2 0  9999
2 62465  42.9972   8.0470 0005940 288.9272  71.0952 15.71042227 46671
Epoch: 2025-10-17T05:09Z
TLE epoch observation values (Epoch: 2025-10-17T05:09:31.781Z)
Latitude
0.00003°
Longitude
-95.29892°
Altitude
354.394 km
Speed
7.699 km/s
True Right ascension
00h 32m 11s
True Declination
0° 00' 00"
Sunlit
Object was in full shadow at epoch
Visualization orbit readout
Latitude
Unknown
Longitude
Unknown
Altitude
Unknown
Speed
Unknown
Apparent Right ascension
Unknown
Apparent Declination
Unknown
Sunlit
N/A
Visualization observer readout
Local Sidereal Time
21:03:47
Azimuth
Unknown
Elevation
Unknown
Doppler factor
Unknown
Orbital elements
Apogee altitude
361.901 km
Perigee altitude
353.898 km
Semi-major axis
6,736.036 km
Eccentricity
0.00059
Inclination
42.9972°
RAAN
8.047°
Arg. of periapsis
288.9272°
True anomaly
71.15961°
Mean anomaly
71.0952°
Eccentric anomaly
71.1274°
Mean motion
3.92588 °/min
Orbital period
91.7 mins
BSTAR
0.0022497
Loading maneuver chart data...
Computing Atmospheric mass density...
Loading historical data...
Loading historical data...
Loading historical data...
Loading historical data...
Loading historical data...
Loading historical data...
Loading historical data...

Documentation

Showing up to 5 results
|